| time (UTC) | temp F | wind direction | speed knots | gust knots | rain 1hr in | rain 24hr in | rain mn in | humidity % | barometer mb |
| 20260505191522 | 70 | 1 | 1.7 | 13.9 | 0.00 | 0.00 | 0.00 | 45 | 1015.5 |
| 20260505190027 | 70 | 1 | 1.7 | 7.8 | 0.00 | 0.00 | 0.00 | 47 | 1015.7 |
| 20260505184520 | 71 | 1 | 1.7 | 7.0 | 0.00 | 0.00 | 0.00 | 48 | 1015.8 |
| 20260505183018 | 71 | 1 | 1.7 | 11.3 | 0.00 | 0.00 | 0.00 | 47 | 1015.9 |
| 20260505181519 | 71 | 1 | 5.2 | 12.2 | 0.00 | 0.00 | 0.00 | 44 | 1015.8 |
| 20260505180017 | 71 | 1 | 2.6 | 7.8 | 0.00 | 0.00 | 0.00 | 46 | 1015.9 |
| 20260505174517 | 72 | 1 | 1.7 | 7.0 | 0.00 | 0.00 | 0.00 | 46 | 1016.0 |
| 20260505173014 | 72 | 1 | 0.9 | 5.2 | 0.00 | 0.00 | 0.00 | 50 | 1016.4 |
| 20260505171513 | 71 | 1 | 0.9 | 7.8 | 0.00 | 0.00 | 0.00 | 52 | 1016.7 |
| 20260505170018 | 71 | 1 | 3.5 | 7.0 | 0.00 | 0.00 | 0.00 | 45 | 1016.8 |
| 20260505164511 | 71 | 1 | 0.0 | 8.7 | 0.00 | 0.00 | 0.00 | 49 | 1016.8 |
| 20260505163010 | 70 | 1 | 0.9 | 9.6 | 0.00 | 0.00 | 0.00 | 52 | 1016.6 |
| 20260505161503 | 69 | 1 | 2.6 | 6.1 | 0.00 | 0.00 | 0.00 | 53 | 1016.6 |
| 20260505153055 | 66 | 1 | 0.9 | 5.2 | 0.00 | 0.00 | 0.00 | 54 | 1017.1 |
| 20260505151559 | 64 | 1 | 0.9 | 3.5 | 0.00 | 0.00 | 0.00 | 55 | 1017.4 |
| 20260505124532 | 52 | 1 | 0.0 | 0.9 | 0.00 | 0.00 | 0.00 | 80 | 1017.4 |
| 20260505123031 | 51 | 1 | 0.0 | 0.0 | 0.00 | 0.00 | 0.00 | 80 | 1017.3 |
| 20260505121533 | 51 | 1 | 0.0 | 0.0 | 0.00 | 0.00 | 0.00 | 79 | 1017.4 |
| 20260505120054 | 51 | 1 | 0.0 | 1.7 | 0.00 | 0.00 | 0.00 | 80 | 1017.1 |
| 20260505114528 | 51 | 1 | 0.0 | 0.0 | 0.00 | 0.00 | 0.00 | 80 | 1017.1 |
| 20260505113027 | 50 | 1 | 0.0 | 0.0 | 0.00 | 0.00 | 0.00 | 76 | 1016.8 |
| 20260505111527 | 50 | 1 | 0.0 | 0.0 | 0.00 | 0.00 | 0.00 | 76 | 1016.7 |
| 20260505101524 | 50 | 1 | 0.0 | 0.0 | 0.00 | 0.00 | 0.00 | 77 | 1016.7 |
| 20260505100023 | 51 | 1 | 0.0 | 0.0 | 0.00 | 0.00 | 0.00 | 77 | 1016.8 |
| 20260505094518 | 51 | 1 | 0.0 | 0.0 | 0.00 | 0.00 | 0.00 | 76 | 1016.8 |
| 20260505093016 | 51 | 1 | 0.0 | 0.0 | 0.00 | 0.00 | 0.00 | 75 | 1016.7 |
| 20260505091523 | 52 | 1 | 0.0 | 0.0 | 0.00 | 0.00 | 0.00 | 74 | 1016.8 |
| 20260505090026 | 52 | 1 | 0.0 | 0.0 | 0.00 | 0.00 | 0.00 | 73 | 1016.8 |
| 20260505084509 | 53 | 1 | 0.0 | 0.0 | 0.00 | 0.00 | 0.00 | 72 | 1016.8 |
| 20260505083007 | 53 | 1 | 0.0 | 0.0 | 0.00 | 0.00 | 0.00 | 72 | 1016.8 |
| 20260505081510 | 54 | 1 | 0.0 | 0.0 | 0.00 | 0.00 | 0.00 | 69 | 1016.8 |
| 20260505080003 | 54 | 1 | 0.0 | 0.9 | 0.00 | 0.00 | 0.00 | 68 | 1016.5 |
| 20260505074502 | 54 | 1 | 0.0 | 7.8 | 0.00 | 0.00 | 0.00 | 68 | 1016.5 |
| 20260505073112 | 55 | 1 | 0.0 | 2.6 | 0.00 | 0.00 | 0.00 | 69 | 1016.5 |
| 20260505071600 | 56 | 1 | 0.0 | 3.5 | 0.00 | 0.00 | 0.00 | 67 | 1016.5 |
| 20260505070055 | 57 | 1 | 0.0 | 5.2 | 0.00 | 0.00 | 0.00 | 64 | 1016.6 |
| 20260505064551 | 57 | 1 | 0.0 | 2.6 | 0.00 | 0.00 | 0.00 | 62 | 1016.7 |
| 20260505063050 | 57 | 1 | 0.9 | 5.2 | 0.00 | 0.00 | 0.00 | 62 | 1016.7 |
| 20260505061553 | 57 | 1 | 0.0 | 4.3 | 0.00 | 0.00 | 0.00 | 62 | 1016.9 |
| 20260505060046 | 58 | 1 | 0.0 | 5.2 | 0.00 | 0.00 | 0.00 | 62 | 1017.0 |
| 20260505054606 | 58 | 1 | 0.0 | 3.5 | 0.00 | 0.00 | 0.00 | 63 | 1017.1 |
| 20260505053054 | 59 | 1 | 0.9 | 3.5 | 0.00 | 0.00 | 0.00 | 61 | 1017.0 |
| 20260505051540 | 59 | 1 | 0.0 | 4.3 | 0.00 | 0.00 | 0.00 | 60 | 1017.0 |
| 20260505041534 | 59 | 1 | 1.7 | 4.3 | 0.00 | 0.00 | 0.00 | 59 | 1017.1 |
| 20260505040032 | 60 | 1 | 0.0 | 3.5 | 0.00 | 0.00 | 0.00 | 60 | 1017.1 |
| 20260505034532 | 60 | 1 | 0.9 | 7.0 | 0.00 | 0.00 | 0.00 | 60 | 1017.3 |
| 20260505033033 | 60 | 1 | 0.9 | 4.3 | 0.00 | 0.00 | 0.00 | 59 | 1017.4 |
| 20260505031542 | 60 | 1 | 0.0 | 2.6 | 0.00 | 0.00 | 0.00 | 60 | 1017.5 |
| 20260505030031 | 60 | 1 | 0.0 | 2.6 | 0.00 | 0.00 | 0.00 | 59 | 1017.4 |
| 20260505024535 | 60 | 1 | 0.0 | 1.7 | 0.00 | 0.00 | 0.00 | 59 | 1017.5 |
| 20260505023030 | 61 | 1 | 0.0 | 4.3 | 0.00 | 0.00 | 0.00 | 60 | 1017.5 |
| 20260505021529 | 61 | 1 | 0.0 | 4.3 | 0.00 | 0.00 | 0.00 | 58 | 1017.4 |
| 20260505020032 | 62 | 1 | 0.0 | 3.5 | 0.00 | 0.00 | 0.00 | 59 | 1017.4 |
| 20260505014535 | 62 | 1 | 0.9 | 4.3 | 0.00 | 0.00 | 0.00 | 58 | 1017.2 |
| 20260505013027 | 62 | 1 | 0.0 | 3.5 | 0.00 | 0.00 | 0.00 | 59 | 1017.0 |
| 20260505011533 | 63 | 1 | 0.0 | 2.6 | 0.00 | 0.00 | 0.00 | 59 | 1017.0 |
| 20260505010026 | 63 | 1 | 0.0 | 3.5 | 0.00 | 0.00 | 0.00 | 59 | 1016.9 |
| 20260505004542 | 64 | 1 | 0.9 | 5.2 | 0.00 | 0.00 | 0.00 | 58 | 1016.6 |
| 20260505003024 | 64 | 1 | 0.9 | 9.6 | 0.00 | 0.00 | 0.00 | 57 | 1016.4 |
| 20260505001524 | 65 | 1 | 0.9 | 5.2 | 0.00 | 0.00 | 0.00 | 56 | 1016.3 |
| 20260505000035 | 66 | 1 | 1.7 | 11.3 | 0.00 | 0.00 | 0.00 | 55 | 1016.2 |
| 20260504234524 | 66 | 1 | 1.7 | 5.2 | 0.00 | 0.00 | 0.00 | 53 | 1016.1 |
| 20260504233021 | 67 | 1 | 1.7 | 7.0 | 0.00 | 0.00 | 0.00 | 52 | 1016.1 |
| 20260504231518 | 69 | 1 | 1.7 | 4.3 | 0.00 | 0.00 | 0.00 | 51 | 1016.0 |
| 20260504230017 | 70 | 1 | 1.7 | 4.3 | 0.00 | 0.00 | 0.00 | 50 | 1015.9 |
| 20260504224516 | 71 | 1 | 1.7 | 4.3 | 0.00 | 0.00 | 0.00 | 49 | 1015.8 |
| 20260504223015 | 71 | 1 | 1.7 | 7.8 | 0.00 | 0.00 | 0.00 | 45 | 1015.9 |
| 20260504221515 | 72 | 1 | 1.7 | 7.8 | 0.00 | 0.00 | 0.00 | 44 | 1015.9 |
| 20260504220015 | 72 | 1 | 0.9 | 4.3 | 0.00 | 0.00 | 0.00 | 43 | 1015.7 |
| 20260504214513 | 72 | 1 | 0.9 | 5.2 | 0.00 | 0.00 | 0.00 | 39 | 1015.8 |
| 20260504213012 | 73 | 1 | 1.7 | 7.0 | 0.00 | 0.00 | 0.00 | 36 | 1015.7 |
| 20260504211511 | 73 | 1 | 1.7 | 6.1 | 0.00 | 0.00 | 0.00 | 35 | 1015.5 |
| 20260504210011 | 73 | 1 | 0.9 | 4.3 | 0.00 | 0.00 | 0.00 | 37 | 1015.7 |
| 20260504204509 | 73 | 1 | 0.9 | 4.3 | 0.00 | 0.00 | 0.00 | 42 | 1015.6 |
| 20260504203008 | 73 | 1 | 1.7 | 6.1 | 0.00 | 0.00 | 0.00 | 39 | 1015.7 |
| 20260504201506 | 73 | 1 | 2.6 | 8.7 | 0.00 | 0.00 | 0.00 | 39 | 1015.9 |
| 20260504200004 | 73 | 1 | 0.9 | 5.2 | 0.00 | 0.00 | 0.00 | 41 | 1016.2 |
| 20260504194503 | 73 | 1 | 0.9 | 3.5 | 0.00 | 0.00 | 0.00 | 41 | 1016.5 |
| 20260504193100 | 73 | 1 | 0.9 | 8.7 | 0.00 | 0.00 | 0.00 | 45 | 1016.7 |